User: anonymous   Login
Location: Unspecified
(0.0000°N, 0.0000°E)
Time: 01:36:18
(UTC+00:00)
Language:

USA 264 DEB - Orbit

View from above orbital plane
View from above orbital plane
View from above satellite
View from above satellite

Ground track
Ground track

The orbit data is extracted from the following two-line orbital elements,

1 40981U 15058R   24177.88938266 0.00000000  00000-0  00000-0 0    05
2 40981  63.4347 111.5844 0150482 359.6932   0.3068 13.40917596    04
Epoch (UTC): 25 June 2024 21:20:42
Eccentricity: 0.0150482
inclination: 63.4347°
perigee height: 993 km
apogee height: 1218 km
right ascension of ascending node: 111.5844°
argument of perigee: 359.6932°
revolutions per day: 13.40917596
mean anomaly at epoch: 0.3068°
orbit number at epoch: 0

The dashed part of the orbit path shows where the satellite is in the earth's shadow,  

DLR